User: anonymous   Login
Location: Albany
(35.0000°S, 118.0000°E)
Time: 18:15:55
(UTC-04:00)
Language:

Radarsat Rocket - Orbit

View from above orbital plane
View from above orbital plane
View from above satellite
View from above satellite

Ground track
Ground track

The orbit data is extracted from the following two-line orbital elements,

1 23711U 95059B   15212.54428672 -.00000056  00000-0 -27411-4 0  9993
2 23711 100.4907 197.2047 0368731 072.7937 030.7100 13.12672632945709
Epoch (UTC): 31 July 2015 13:03:46
Eccentricity: 0.0368731
inclination: 100.4907°
perigee height: 933 km
apogee height: 1493 km
right ascension of ascending node: 197.2047°
argument of perigee: 72.7937°
revolutions per day: 13.12672632
mean anomaly at epoch: 30.7100°
orbit number at epoch: 94570

The dashed part of the orbit path shows where the satellite is in the earth's shadow,  

DLR